默认 日期 大小 文件数 浏览量 最新下载 xml
werner磁力链接相关资源由用户搜索指令自动获取,结果来源于网络,本站不存储任何资料,亦不承担任何责任,请于24小时内删除,搜索到786个磁力,用时1ms。
    {"VIDEO_TS": {"VIDEO_TS.BUP": 18432, "VIDEO_TS.IFO": 18432, "VIDEO_TS.VOB": 702464, "VTS_01_0.BUP": 83968, "VTS_01_0.IFO": 83968, "VTS_01_0.VOB": 544768, "VTS_01_1.VOB": 1073739776, "VTS_01_2.VOB": 1073739776, "VTS_01_3.VOB": 1073739776, "VTS_01_4.VOB": ...
创建时间: 2019-12-30 16:13:31 大小:7.31 GB 文件数量:30 热度:5 最近下载:2024-09-26 01:35:01
    ... Higher Learning.flac": 63616145, "Kenny Werner with BJO - Institute Of Higher ... Learning.cue": 1495, "Kenny Werner with BJO - Institute Of Higher ...
创建时间: 2020-01-01 11:01:19 大小:447.44 MB 文件数量:21 热度:6 最近下载:2025-04-20 18:27:01
    ... RX).mp4": 208007380, "Dylan Werner - 3. Fluid Mobility RX ... Mobility RX).mp4": 238768104, "Dylan Werner - 1. Dynamic Mobility RX ... RX).mp4": 229892996, "Dylan Werner - 4. Kinetic Mobility RX ... RX).mp4": 224164029, "Dylan Werner - 5. Elastic Mobility RX ...
创建时间: 2020-01-01 22:10:29 大小:1.05 GB 文件数量:5 热度:3 最近下载:2024-01-01 03:35:01
    {"12. Au Café.mp3": 10173345, "07. Escapades.mp3": 5335332, "02. Alice et Simon.mp3": 4324210, "11. Thème de Simon.mp3": 6354770, "13. Thème d'Alice .mp3": 25443826, "03. Les Anges au piano.mp3": 5924070, "06. Thème de Laetitia.mp3": 11044798, "01. Thème ...
创建时间: 2020-01-02 11:27:43 大小:99.51 MB 文件数量:14 热度:6 最近下载:2025-09-18 22:43:15
    {"Aluminium.cue": 358, "Aluminium.log": 2249, "Aluminium - cover.jpg": 11965, "01 - Rock And Roll Part 4.flac": 52338688, "02 - Rock And Roll Part 5.flac": 129038365}
创建时间: 2020-01-02 19:05:56 大小:172.99 MB 文件数量:5 热度:3 最近下载:2024-01-01 07:59:01
    {"Przemoc emocjonalna.jpg": 40946, "001. Przemoc emocjonalna.mp3": 43177859, "002. Przemoc emocjonalna.mp3": 43260803, "003. Przemoc emocjonalna.mp3": 43338851, "004. Przemoc emocjonalna.mp3": 43263683, "005. Przemoc emocjonalna.mp3": 43214435, "006. ...
创建时间: 2020-01-03 00:32:54 大小:288.39 MB 文件数量:8 热度:2 最近下载:2024-01-01 09:29:03
    ... - Columbus CD 1.ape": 136022644, "Werner Egk - Columbus CD 1.log ... ": 1000, "Werner Egk - Columbus CD 2.ape ... ": 85482700, "Werner Egk - Columbus CD 2.log ... ": 1001, "Werner Egk - Columbus CD 1 - ape ...
创建时间: 2020-01-04 00:00:32 大小:238.42 MB 文件数量:7 热度:4 最近下载:2024-01-01 14:29:02
    {"folder.jpg": 31944, "audiochecker.log": 632, "01. vessels I.flac": 19211212, "05. vessels V.flac": 18647709, "02. vessels II.flac": 27070656, "04. vessels IV.flac": 16326257, "06. vessels VI.flac": 19479487, "09. vessels IX.flac": 15986302, "03. vessels ...
创建时间: 2020-01-06 01:43:41 大小:192.3 MB 文件数量:11 热度:4 最近下载:2024-01-02 04:15:05
    ... ": 19337671}, "Cover.jpg": 124054, "Teresa Werner - Spelnic Marzenia.cue": 2417, "Teresa ... Werner - Spelnic Marzenia.log": 12032, "Teresa Werner - Spelnic Marzenia.flac ...
创建时间: 2020-01-06 18:47:23 大小:595.98 MB 文件数量:10 热度:5 最近下载:2023-04-23 01:10:12
    {"Werner.Beinhart.1990.German.1080p.BluRay.x264-SPiCY.idx": 44085, "Werner.Beinhart.1990.German.1080p.BluRay.x264-SPiCY.mkv": 8201212541, "Werner.Beinhart.1990.German.1080p.BluRay.x264-SPiCY.sub": 8767488}
创建时间: 2020-01-21 12:19:41 大小:7.65 GB 文件数量:3 热度:4 最近下载:2022-04-09 06:08:41
    {"VIDEO_TS": {"VIDEO_TS.BUP": 10240, "VIDEO_TS.IFO": 10240, "VTS_01_0.BUP": 75776, "VTS_01_0.IFO": 75776, "VTS_01_0.VOB": 389978112, "VTS_01_1.VOB": 1073739776, "VTS_01_2.VOB": 1073739776, "VTS_01_3.VOB": 1073739776, "VTS_01_4.VOB": 1073739776, "VTS_01_5. ...
创建时间: 2020-01-22 16:58:51 大小:7.92 GB 文件数量:22 热度:8 最近下载:2022-05-08 05:49:04
    {"Power Arms.mp4": 119439982, "Power Body.mp4": 126451147, "Power Core.mp4": 115253207, "Power Corset.mp4": 124947075, "Power Legs I.mp4": 113744411, "Dynamic Power.mp4": 107629745, "Power Legs II.mp4": 129690089, "Power Vinyasa.mp4": 113876496, "Power ...
创建时间: 2020-01-23 00:26:16 大小:1.1 GB 文件数量:13 热度:4 最近下载:2025-02-08 19:58:04
    {"Antheil - Symphony No. 5": {"01 Anthiel - Symphony No. 5 - I. Allegro.flac": 34985916, "02 Anthiel - Symphony No. 5 - II. Adagio molto.flac": 30497720, "03 Anthiel - Symphony No. 5 - III. Allegretto giocoso.flac": 33183123}, "Josten - Endymion (Ballet)": ...
创建时间: 2020-01-23 12:39:31 大小:300.24 MB 文件数量:23 热度:4 最近下载:2024-09-02 15:03:02
    {"Buddha Palms Yoga Class.mp4": 542551009, "Downloaded From 1337X.to.txt": 96, "Downloaded From Demonoid.is.txt": 58, "Downloaded From TorrentGalaxy.to.txt": 583}
创建时间: 2020-01-29 06:33:23 大小:517.42 MB 文件数量:4 热度:3 最近下载:2022-04-13 06:07:34
    {"band.jpg": 220088, "cover.jpg": 229818, "10. Lady.mp3": 8384729, "11. Daytime.mp3": 17928833, "16. Hangman.mp3": 20631984, "14. Tomorrow.mp3": 10855921, "04. Here I Am.mp3": 9387839, "06. Rings of Gold.mp3": 12311472, "02. All My Friends.mp3": 9783866, " ...
创建时间: 2020-01-31 19:38:49 大小:177.09 MB 文件数量:18 热度:3 最近下载:2022-04-13 06:25:12
    {"Expand is the New Open.mp4": 779969551, "Downloaded From 1337X.to.txt": 96, "Growth is the New Change.mp4": 761541067, "Downloaded From Demonoid.is.txt": 58, "Service is the New Humility.mp4": 835388394, "Letting Go is the New Surrender.mp4": 744318747, ...
创建时间: 2020-02-03 23:42:26 大小:3.58 GB 文件数量:8 热度:3 最近下载:2022-04-14 06:06:13
    ... mir sein.mp3": 2590097, "Ilse Werner - Ihre großen Erfolge 2010 ...
创建时间: 2020-02-06 00:52:16 大小:31.18 MB 文件数量:14 热度:4 最近下载:2025-05-04 09:53:01
    {"CD 1": {"01. Partite diverse sopra BWV768.mp3": 26967438, "09. Prelude & Fuge in B minor BWV 544-1.mp3": 8392496, "10. Prelude & Fuge in B minor BWV 544-2.mp3": 7135484, "06. Toccata, Adagio & Fuge in C BWV 564-1.mp3": 7942981, "07. Toccata, Adagio & ...
创建时间: 2020-02-07 07:53:19 大小:295.87 MB 文件数量:42 热度:3 最近下载:2022-04-16 06:03:32
    {"001.jpg": 1496641, "002.jpg": 1534496, "003.jpg": 1456288, "004.jpg": 1456064, "005.jpg": 1502611, "006.jpg": 1580619, "007.jpg": 1522364, "008.jpg": 1458874, "009.jpg": 1551242, "010.jpg": 1557249, "011.jpg": 1580682, "012.jpg": 1493363, "013.jpg": ...
创建时间: 2020-02-17 18:52:30 大小:194.1 MB 文件数量:159 热度:2 最近下载:2023-12-24 20:19:07
    {"001.jpg": 1026415, "002.jpg": 1079020, "003.jpg": 1106272, "004.jpg": 1018466, "005.jpg": 1027978, "006.jpg": 1073471, "007.jpg": 1053334, "008.jpg": 979206, "009.jpg": 1111125, "010.jpg": 1097472, "011.jpg": 1121560, "012.jpg": 1125656, "013.jpg": ...
创建时间: 2020-02-17 21:33:57 大小:140.1 MB 文件数量:158 热度:3 最近下载:2023-12-24 21:22:01